time_stamp(utc),avg(mph),gust(mph),direction(deg),12m_air_temp(f),sonic_u(cm/s),sonic_v(cm/s),sonic_w(cm/s),pressure,2m_air_temp(f),pyranometer(W/m^2)
"2021-07-25 00:02:39+00",9.2,12.2,,75.3,-117,-360,6,1017.19,74.9,0
"2021-07-25 00:07:39+00",11.9,14.9,,75.3,-211,-484,-3,1017.27,74.8,0
"2021-07-25 00:12:39+00",12.5,15.5,,75.4,-225,-509,2,1017.34,74.8,0
"2021-07-25 00:17:39+00",11.7,14.7,,75.3,-192,-468,8,1017.32,74.7,0
"2021-07-25 00:22:39+00",13.8,15.8,,75.3,-277,-567,-29,1017.38,74.7,0
"2021-07-25 00:27:39+00",12.8,14.8,,75.2,-251,-578,-30,1017.39,74.6,0
"2021-07-25 00:32:39+00",13.8,15.8,,75.2,-256,-569,-42,1017.25,74.6,0
"2021-07-25 00:37:39+00",13.4,15.4,,75.1,-187,-559,-6,1017.24,74.5,0
"2021-07-25 00:42:39+00",12.8,14.8,,75,-240,-512,-6,1017.27,74.5,0
"2021-07-25 00:47:39+00",13.6,16.6,,74.9,-217,-547,-5,1017.23,74.4,0
"2021-07-25 00:52:39+00",10.1,12.1,,74.8,-140,-407,10,1017.19,74.3,0
"2021-07-25 00:57:39+00",11.8,13.8,,74.9,-199,-480,18,1017.3,74.3,0
"2021-07-25 01:02:39+00",13.5,15.5,,74.9,-214,-556,5,1017.32,74.4,0
"2021-07-25 01:07:39+00",12.1,15.1,,74.9,-215,-491,3,1017.33,74.4,0
"2021-07-25 01:12:39+00",10.2,12.2,,74.9,-147,-422,1,1017.32,74.4,0
"2021-07-25 01:17:39+00",13.5,14.5,,74.7,-171,-552,-16,1017.31,74.3,0
"2021-07-25 01:22:39+00",12.3,14.3,,74.7,-180,-515,-6,1017.32,74.2,0
"2021-07-25 01:27:39+00",13.4,15.4,,74.8,-187,-553,-5,1017.38,74.2,0
"2021-07-25 01:32:39+00",14.3,16.3,,74.8,-218,-588,-6,1017.39,74.3,0
"2021-07-25 01:37:39+00",12.0,13.0,,74.9,-200,-492,-2,1017.37,74.4,0
"2021-07-25 01:42:39+00",13.5,15.5,,74.9,-313,-547,2,1017.4,74.4,0
"2021-07-25 01:47:39+00",13.5,15.5,,75,-294,-537,6,1017.4,74.5,0
"2021-07-25 01:52:39+00",12.6,13.6,,75,-313,-488,-4,1017.41,74.5,0
"2021-07-25 01:57:39+00",12.6,14.6,,75.3,-334,-479,4,1017.48,74.6,0
"2021-07-25 02:02:39+00",14.3,15.3,,75.6,-316,-565,-2,1017.44,74.8,0
"2021-07-25 02:07:39+00",12.4,15.4,,75.5,-242,-488,17,1017.36,74.9,0
"2021-07-25 02:12:39+00",15.9,16.9,,75.6,-358,-623,-8,1017.3,74.9,0
"2021-07-25 02:17:39+00",15.6,17.6,,75.6,-325,-619,5,1017.25,74.9,0
"2021-07-25 02:22:39+00",14.6,16.6,,75.6,-319,-580,-2,1017.16,75,0
"2021-07-25 02:27:39+00",15.0,18.0,,75.5,-385,-574,7,1017.17,74.9,0
"2021-07-25 02:32:39+00",12.6,15.6,,75.5,-330,-489,29,1017.15,75,0
"2021-07-25 02:37:39+00",15.2,17.2,,75.6,-403,-569,27,1017.13,74.9,0
"2021-07-25 02:42:39+00",13.6,17.6,,75.6,-333,-522,27,1017.26,75,0
"2021-07-25 02:47:39+00",16.0,18.0,,75.6,-407,-626,-4,1017.05,74.9,0
"2021-07-25 02:52:39+00",13.3,16.3,,75.4,-340,-520,14,1016.91,74.9,0
"2021-07-25 02:57:39+00",13.9,15.9,,75.4,-348,-524,18,1016.95,74.8,0
"2021-07-25 03:02:39+00",13.3,16.3,,75.2,-350,-512,15,1016.91,74.7,0
"2021-07-25 03:07:39+00",13.4,15.4,,75.2,-376,-470,23,1016.97,74.6,0
"2021-07-25 03:12:39+00",11.7,14.7,,75.2,-318,-438,32,1016.99,74.5,0
"2021-07-25 03:17:39+00",15.0,18.0,,75,-379,-593,10,1016.91,74.4,0
"2021-07-25 03:22:39+00",13.9,14.9,,74.9,-302,-547,-14,1016.7,74.2,0
"2021-07-25 03:27:39+00",14.3,16.3,,74.7,-308,-579,6,1016.67,74.1,0
"2021-07-25 03:32:39+00",14.4,16.4,,74.6,-321,-569,-3,1016.62,74,0
"2021-07-25 03:37:39+00",14.1,17.1,,74.4,-295,-565,7,1016.66,73.8,0
"2021-07-25 03:42:39+00",13.6,15.6,,74.3,-275,-546,4,1016.63,73.8,0
"2021-07-25 03:47:39+00",13.0,15.0,,74.2,-264,-525,6,1016.65,73.7,0
"2021-07-25 03:52:39+00",12.3,14.3,,74.1,-248,-491,-6,1016.74,73.6,0
"2021-07-25 03:57:39+00",13.3,16.3,,74,-342,-524,15,1016.82,73.5,0
"2021-07-25 04:02:39+00",15.3,18.3,,74.2,-416,-567,-5,1016.95,73.5,0
"2021-07-25 04:07:39+00",14.1,16.1,,74.2,-383,-523,7,1016.94,73.5,0
"2021-07-25 04:12:39+00",14.6,16.6,,74.1,-398,-548,12,1016.84,73.5,0
"2021-07-25 04:17:39+00",13.1,15.1,,74,-310,-502,14,1016.78,73.5,0
"2021-07-25 04:22:39+00",12.2,14.2,,74,-324,-453,11,1016.9,73.4,0
"2021-07-25 04:27:39+00",12.3,15.3,,74,-321,-471,5,1017.04,73.4,0
"2021-07-25 04:32:39+00",12.8,14.8,,74,-318,-495,4,1016.93,73.4,0
"2021-07-25 04:37:39+00",11.9,14.9,,73.8,-274,-476,-7,1016.88,73.3,0
"2021-07-25 04:42:39+00",14.9,17.9,,73.9,-375,-580,4,1016.81,73.2,0
"2021-07-25 04:47:39+00",16.1,18.1,,74,-364,-641,-8,1016.78,73.3,0
"2021-07-25 04:52:39+00",12.9,14.9,,73.9,-326,-511,16,1016.87,73.3,0
"2021-07-25 04:57:39+00",15.3,17.3,,74,-409,-583,4,1016.76,73.4,0
"2021-07-25 05:02:39+00",14.6,18.6,,73.9,-369,-574,13,1016.64,73.4,0
"2021-07-25 05:07:39+00",16.4,19.4,,74,-376,-644,9,1016.54,73.4,0
"2021-07-25 05:12:39+00",14.4,17.4,,73.9,-367,-560,8,1016.7,73.4,0
"2021-07-25 05:17:39+00",15.4,18.4,,73.9,-407,-606,-2,1016.71,73.3,0
"2021-07-25 05:22:39+00",14.7,16.7,,73.9,-361,-572,12,1016.66,73.4,0
"2021-07-25 05:27:39+00",16.1,19.1,,73.9,-356,-641,-5,1016.56,73.3,0
"2021-07-25 05:32:39+00",15.6,20.6,,73.8,-336,-610,4,1016.4,73.3,0
"2021-07-25 05:37:39+00",13.1,16.1,,73.8,-328,-503,5,1016.46,73.3,0
"2021-07-25 05:42:39+00",16.1,18.1,,73.9,-401,-629,-4,1016.36,73.3,0
"2021-07-25 05:47:39+00",15.2,17.2,,73.8,-394,-577,10,1016.32,73.2,0
"2021-07-25 05:52:39+00",16.4,19.4,,73.8,-422,-623,15,1016.25,73.2,0
"2021-07-25 05:57:39+00",16.1,18.1,,73.9,-434,-611,-3,1016.2,73.2,0
"2021-07-25 06:02:39+00",14.9,17.9,,73.9,-380,-573,16,1016.18,73.3,0
"2021-07-25 06:07:39+00",14.3,17.3,,74,-374,-559,12,1016.09,73.3,0
"2021-07-25 06:12:39+00",14.3,16.3,,74,-393,-527,13,1015.9,73.3,0
"2021-07-25 06:17:39+00",15.1,18.1,,74,-427,-554,5,1015.89,73.3,0
"2021-07-25 06:22:39+00",13.5,16.5,,73.9,-344,-526,7,1015.84,73.3,0
"2021-07-25 06:27:39+00",14.5,16.5,,74,-346,-561,7,1015.92,73.3,0
"2021-07-25 06:32:39+00",12.7,16.7,,74,-342,-471,32,1015.94,73.4,0
"2021-07-25 06:37:39+00",13.6,15.6,,74,-329,-525,7,1015.86,73.4,0
"2021-07-25 06:42:39+00",14.1,15.1,,74,-381,-524,3,1015.86,73.4,0
"2021-07-25 06:47:39+00",13.4,16.4,,73.9,-378,-463,5,1015.98,73.3,0
"2021-07-25 06:52:39+00",13.8,15.8,,73.8,-410,-457,9,1016.01,73.3,0
"2021-07-25 06:57:39+00",13.1,16.1,,73.9,-364,-484,-12,1016,73.3,0
"2021-07-25 07:02:39+00",14.9,16.9,,73.9,-437,-517,2,1015.98,73.4,0
"2021-07-25 07:07:39+00",13.8,16.8,,73.9,-411,-478,23,1015.88,73.4,0
"2021-07-25 07:12:39+00",12.3,14.3,,74,-339,-444,25,1015.85,73.4,0
"2021-07-25 07:17:39+00",11.9,13.9,,73.9,-358,-384,34,1015.88,73.4,0
"2021-07-25 07:22:39+00",12.1,14.1,,73.9,-348,-430,7,1015.92,73.4,0
"2021-07-25 07:27:39+00",14.5,16.5,,73.9,-445,-477,-3,1015.9,73.4,0
"2021-07-25 07:32:39+00",16.7,18.7,,74,-567,-486,17,1015.86,73.4,0
"2021-07-25 07:37:39+00",16.1,20.1,,73.9,-536,-491,17,1015.84,73.4,0
"2021-07-25 07:42:39+00",16.5,18.5,,73.8,-523,-506,23,1015.77,73.4,0
"2021-07-25 07:47:39+00",17.8,20.8,,73.5,-589,-524,33,1015.76,73.1,0
"2021-07-25 07:52:39+00",19.6,22.6,,73.4,-634,-598,37,1015.75,72.9,0
"2021-07-25 07:57:39+00",16.4,20.4,,73,-527,-508,14,1015.71,72.6,0
"2021-07-25 08:02:39+00",16.4,23.4,,72.5,-557,-492,4,1015.58,72.1,0
"2021-07-25 08:07:39+00",16.7,21.7,,71.8,-563,-473,24,1015.52,71.1,0
"2021-07-25 08:12:39+00",16.5,20.5,,71.6,-510,-549,12,1015.54,70.8,0
"2021-07-25 08:17:39+00",18.1,22.1,,71.2,-570,-537,20,1015.59,70.3,0
"2021-07-25 08:22:39+00",21.4,24.4,,70.1,-673,-655,18,1015.47,69.7,0
"2021-07-25 08:27:39+00",17.4,21.4,,69,-453,-625,27,1015.32,69,0
"2021-07-25 08:32:39+00",15.5,21.5,,68.1,-223,-650,-13,1015.2,68.1,0
"2021-07-25 08:37:39+00",16.3,21.3,,68.1,-181,-663,-27,1015.11,67.9,0
"2021-07-25 08:42:39+00",11.1,17.1,,68.2,-69,-418,43,1015,67.9,0
"2021-07-25 08:47:39+00",17.3,21.3,,68.4,-153,-748,-5,1014.95,68,0
"2021-07-25 08:52:39+00",16.7,22.7,,68.4,-141,-701,-4,1014.98,67.8,0
"2021-07-25 08:57:39+00",13.7,21.7,,68.2,-71,-564,12,1015.01,67.7,0
"2021-07-25 09:02:39+00",13.8,17.8,,68.2,-61,-560,-1,1014.91,67.5,0
"2021-07-25 09:07:39+00",14.8,19.8,,68.5,-76,-629,-28,1014.92,67.6,0
"2021-07-25 09:12:39+00",13.4,15.4,,68.7,-57,-564,-9,1014.91,67.9,0
"2021-07-25 09:17:39+00",13.4,18.4,,69,-44,-575,-21,1014.94,68.1,0
"2021-07-25 09:22:39+00",12.7,16.7,,69.2,-48,-554,-13,1014.99,68.3,0
"2021-07-25 09:27:39+00",12.2,15.2,,69.4,-63,-527,-26,1015.01,68.6,0
"2021-07-25 09:32:39+00",15.8,19.8,,70,-98,-683,-43,1015.09,68.9,0
"2021-07-25 09:37:39+00",14.3,17.3,,70.6,-70,-608,-12,1014.94,69.5,0
"2021-07-25 09:42:39+00",12.8,17.8,,70.9,-62,-539,-12,1014.95,69.9,0
"2021-07-25 09:47:39+00",13.9,15.9,,70.9,-94,-597,-29,1015,70.1,0
"2021-07-25 09:52:39+00",12.9,17.9,,71,-64,-570,-38,1014.95,70.2,0
"2021-07-25 09:57:39+00",13.9,19.9,,71.3,-108,-590,-40,1014.9,70.5,0
"2021-07-25 10:02:39+00",16.6,24.6,,71.6,-183,-744,-42,1014.92,70.7,0
"2021-07-25 10:07:39+00",14.0,18.0,,71.6,-115,-628,-31,1014.91,70.9,0
"2021-07-25 10:12:39+00",14.6,20.6,,71.7,-96,-617,-7,1014.93,71.1,0
"2021-07-25 10:17:39+00",13.6,16.6,,71.7,-55,-568,-26,1014.78,71.2,0
"2021-07-25 10:22:39+00",14.0,18.0,,71.8,-66,-598,-28,1014.86,71.3,0
"2021-07-25 10:27:39+00",11.0,15.0,,72,-33,-475,-16,1014.88,71.5,0
"2021-07-25 10:32:39+00",14.0,19.0,,72.1,-56,-599,-22,1014.83,71.7,0
"2021-07-25 10:37:39+00",14.2,18.2,,72.3,-51,-604,-32,1014.84,71.8,0
"2021-07-25 10:42:39+00",13.4,18.4,,72.4,-22,-573,-21,1014.68,71.9,0
"2021-07-25 10:47:39+00",14.4,19.4,,72.4,-41,-613,-24,1014.83,72,0
"2021-07-25 10:52:39+00",15.6,19.6,,72.6,-74,-660,-30,1014.78,72.2,0
"2021-07-25 10:57:39+00",13.1,19.1,,72.7,-37,-584,-27,1014.85,72.4,0
"2021-07-25 11:02:39+00",12.5,16.5,,72.8,-39,-519,-6,1014.83,72.5,0
"2021-07-25 11:07:39+00",13.9,17.9,,73,-75,-590,-23,1014.9,72.7,0
"2021-07-25 11:12:39+00",13.7,19.7,,73.1,-133,-567,21,1014.98,72.9,0
"2021-07-25 11:17:39+00",15.2,19.2,,73.2,-102,-662,-19,1014.87,72.9,0
"2021-07-25 11:22:39+00",15.0,18.0,,73.4,-101,-654,2,1014.9,73.1,0
"2021-07-25 11:27:39+00",14.0,19.0,,73.4,-119,-582,-4,1014.8,73.1,0
"2021-07-25 11:32:39+00",15.9,20.9,,73.5,-78,-695,-31,1014.75,73.2,0
"2021-07-25 11:37:39+00",15.4,20.4,,73.5,-115,-661,-21,1014.71,73.3,0
"2021-07-25 11:42:39+00",17.8,29.8,,73.6,-230,-778,-20,1014.56,73.3,0
"2021-07-25 11:47:39+00",20.9,24.9,,73.6,-237,-885,-11,1014.56,73.4,0
"2021-07-25 11:52:39+00",22.0,28.0,,73.5,-320,-949,-18,1014.57,73.3,0
"2021-07-25 11:57:39+00",23.4,28.4,,73.3,-421,-964,-4,1014.6,73.2,0
"2021-07-25 12:02:39+00",20.2,25.2,,73.2,-303,-833,-13,1014.61,73,0
"2021-07-25 12:07:39+00",21.2,24.2,,73.1,-342,-869,-22,1014.63,72.9,0
"2021-07-25 12:12:39+00",22.0,27.0,,73,-296,-925,-21,1014.62,72.8,0
"2021-07-25 12:17:39+00",19.9,22.9,,73,-273,-817,-12,1014.73,72.7,0
"2021-07-25 12:22:39+00",19.1,23.1,,73,-308,-808,-7,1014.75,72.7,0
"2021-07-25 12:27:39+00",18.3,22.3,,73,-331,-736,-8,1014.76,72.7,0
"2021-07-25 12:32:39+00",17.3,21.3,,73,-262,-706,6,1014.71,72.8,0
"2021-07-25 12:37:39+00",17.3,21.3,,73,-290,-709,3,1014.78,72.8,0
"2021-07-25 12:42:39+00",19.4,23.4,,73,-400,-770,14,1014.78,72.8,0
"2021-07-25 12:47:39+00",19.5,22.5,,73.1,-422,-773,-5,1014.79,72.9,0
"2021-07-25 12:52:39+00",17.8,21.8,,73.2,-389,-726,-1,1014.79,73.1,0
"2021-07-25 12:57:39+00",15.5,18.5,,73.3,-294,-619,10,1014.79,73.2,0
"2021-07-25 13:02:39+00",16.3,18.3,,73.3,-247,-668,-2,1014.58,73.3,0
"2021-07-25 13:07:39+00",19.7,23.7,,73.3,-272,-823,-22,1014.65,73.3,0
"2021-07-25 13:12:39+00",21.8,25.8,,73.5,-419,-905,0,1014.52,73.5,0
"2021-07-25 13:17:39+00",22.6,25.6,,73.7,-466,-927,-7,1014.56,73.6,0
"2021-07-25 13:22:39+00",22.0,26.0,,73.7,-460,-879,4,1014.36,73.7,0
"2021-07-25 13:27:39+00",18.0,21.0,,73.8,-311,-738,6,1014.32,73.7,0
"2021-07-25 13:32:39+00",20.8,22.8,,74.1,-430,-827,-13,1014.26,73.9,0
"2021-07-25 13:37:39+00",20.5,23.5,,74.4,-550,-797,36,1014.36,74.2,0
"2021-07-25 13:42:39+00",19.7,23.7,,74.5,-482,-776,9,1014.3,74.5,0
"2021-07-25 13:47:39+00",19.4,22.4,,74.7,-479,-751,26,1014.32,74.8,0
"2021-07-25 13:52:39+00",20.1,24.1,,74.7,-519,-775,18,1014.27,74.8,0
"2021-07-25 13:57:39+00",22.5,26.5,,74.8,-558,-868,4,1014.14,74.7,0
"2021-07-25 14:02:39+00",22.3,27.3,,74.8,-605,-836,22,1014.24,74.7,0
"2021-07-25 14:07:39+00",23.9,26.9,,74.9,-693,-842,34,1014.24,74.8,0
"2021-07-25 14:12:39+00",25.5,29.5,,75,-676,-985,26,1014.15,74.8,0
"2021-07-25 14:17:39+00",23.0,26.0,,75,-586,-885,25,1014.13,74.9,0
"2021-07-25 14:22:39+00",24.0,27.0,,75,-649,-888,16,1014.13,75,0
"2021-07-25 14:27:39+00",23.9,29.9,,75.1,-585,-919,24,1014.14,75,0
"2021-07-25 14:32:39+00",23.3,29.3,,75.1,-632,-889,21,1014.05,75,0
"2021-07-25 14:37:39+00",27.0,31.0,,75.1,-768,-1013,9,1014.01,75.1,0
"2021-07-25 14:42:39+00",22.9,27.9,,75.2,-553,-884,35,1014,75.3,0
"2021-07-25 14:47:39+00",24.8,30.8,,75.3,-643,-962,13,1013.83,75.5,0
"2021-07-25 14:52:39+00",24.5,26.5,,75.4,-645,-934,10,1013.9,75.7,0
"2021-07-25 14:57:39+00",27.3,31.3,,75.4,-721,-1021,19,1013.87,75.7,0
"2021-07-25 15:02:39+00",24.6,32.6,,75.5,-594,-959,10,1013.82,75.7,0
"2021-07-25 15:07:39+00",25.3,29.3,,75.6,-582,-1004,27,1013.73,76,0
"2021-07-25 15:12:39+00",27.8,31.8,,75.6,-715,-1070,14,1013.72,76.1,0
"2021-07-25 15:17:39+00",23.3,28.3,,75.7,-573,-930,1,1013.68,76.1,0
"2021-07-25 15:22:39+00",28.8,33.8,,75.7,-637,-1140,-2,1013.64,76,0
"2021-07-25 15:27:39+00",20.3,24.3,,75.8,-507,-796,28,1013.7,76.2,0
"2021-07-25 15:32:39+00",20.6,23.6,,75.8,-532,-811,47,1013.64,76.3,0
"2021-07-25 15:37:39+00",24.6,28.6,,75.7,-612,-962,17,1013.59,76.4,0
"2021-07-25 15:42:39+00",24.6,29.6,,75.8,-510,-998,4,1013.47,76.5,0
"2021-07-25 15:47:39+00",21.1,26.1,,76,-518,-815,16,1013.52,76.7,0
"2021-07-25 15:52:39+00",24.0,28.0,,75.8,-646,-880,27,1013.48,76.7,0
"2021-07-25 15:57:39+00",23.3,29.3,,75.8,-527,-939,7,1013.39,76.6,0
"2021-07-25 16:02:39+00",23.3,27.3,,75.8,-522,-928,17,1013.36,76.7,0
"2021-07-25 16:07:39+00",25.0,28.0,,75.9,-531,-990,-2,1013.26,77.1,0
"2021-07-25 16:12:39+00",23.7,29.7,,76.3,-555,-913,10,1013.23,77.6,0
"2021-07-25 16:17:39+00",20.6,30.6,,76.7,-484,-838,39,1013.22,78.2,0
"2021-07-25 16:22:39+00",20.2,26.2,,76.8,-497,-810,17,1013.21,78.5,0
"2021-07-25 16:27:39+00",20.3,23.3,,76.8,-570,-742,16,1013.19,78.7,0
"2021-07-25 16:32:39+00",21.3,26.3,,76.9,-507,-876,29,1013.13,78.9,0
"2021-07-25 16:37:39+00",19.6,23.6,,77.1,-554,-678,39,1013.25,79,0
"2021-07-25 16:42:39+00",22.7,25.7,,77,-576,-879,-7,1013.27,79.1,0
"2021-07-25 16:47:39+00",18.0,23.0,,77.2,-445,-708,30,1013.19,79.2,0
"2021-07-25 16:52:39+00",20.3,26.3,,76.9,-493,-800,23,1013.16,78.8,0
"2021-07-25 16:57:39+00",22.9,25.9,,77,-496,-916,-2,1013.16,78.9,0
"2021-07-25 17:02:39+00",21.6,25.6,,77.3,-490,-854,24,1013.16,79,0
"2021-07-25 17:07:39+00",22.9,26.9,,77,-518,-903,-3,1013.1,78.5,0
"2021-07-25 17:12:39+00",22.8,25.8,,76.9,-514,-906,2,1013.03,78.6,0
"2021-07-25 17:17:39+00",22.4,25.4,,77.1,-553,-871,-3,1012.99,78.7,0
"2021-07-25 17:22:39+00",23.0,26.0,,77.2,-570,-898,4,1013.07,78.9,0
"2021-07-25 17:27:39+00",20.2,24.2,,77.2,-531,-751,-9,1013.21,79,0
"2021-07-25 17:32:39+00",19.1,22.1,,77.1,-494,-739,34,1013.22,79,0
"2021-07-25 17:37:39+00",19.4,22.4,,77.2,-540,-719,34,1013.22,79.2,0
"2021-07-25 17:42:39+00",22.1,25.1,,77.1,-559,-852,-5,1013.01,79.1,0
"2021-07-25 17:47:39+00",20.9,23.9,,77.4,-496,-821,3,1012.95,79.4,0
"2021-07-25 17:52:39+00",20.3,23.3,,77.6,-431,-822,-13,1012.82,79.7,0
"2021-07-25 17:57:39+00",20.1,22.1,,77.8,-460,-782,-18,1012.87,79.9,0
"2021-07-25 18:02:39+00",18.7,22.7,,77.8,-410,-738,15,1012.72,80,0
"2021-07-25 18:07:39+00",19.1,23.1,,78.2,-535,-736,3,1012.68,80.3,0
"2021-07-25 18:12:39+00",18.8,21.8,,78.3,-411,-730,11,1012.59,80.5,0
"2021-07-25 18:17:39+00",17.3,20.3,,78.3,-310,-702,29,1012.56,80.4,0
"2021-07-25 18:22:39+00",18.6,22.6,,78.3,-264,-791,-18,1012.47,80.1,0
"2021-07-25 18:27:39+00",16.7,20.7,,78.6,-300,-697,-7,1012.43,80.3,0
"2021-07-25 18:32:39+00",17.5,22.5,,78.8,-194,-735,-14,1012.46,80.5,0
"2021-07-25 18:37:39+00",19.4,23.4,,78.7,-244,-804,-5,1012.48,80.4,0
"2021-07-25 18:42:39+00",19.8,24.8,,78.6,-304,-804,3,1012.47,80.2,0
"2021-07-25 18:47:39+00",17.4,22.4,,78.5,-261,-718,-1,1012.38,80.2,0
"2021-07-25 18:52:39+00",20.0,24.0,,78.3,-255,-824,-17,1012.28,80,0
"2021-07-25 18:57:39+00",20.3,23.3,,78.3,-328,-829,-5,1012.24,80,0
"2021-07-25 19:02:39+00",21.7,26.7,,78.2,-366,-862,-10,1012.17,79.9,0
"2021-07-25 19:07:39+00",16.0,20.0,,78.9,-325,-646,32,1012.15,80.5,0
"2021-07-25 19:12:39+00",19.5,23.5,,78.3,-278,-826,-23,1012.13,80.2,0
"2021-07-25 19:17:39+00",22.1,26.1,,78.2,-424,-893,18,1012.11,80,0
"2021-07-25 19:22:39+00",23.2,25.2,,78,-509,-923,-16,1012.07,79.8,0
"2021-07-25 19:27:39+00",22.4,27.4,,78.5,-309,-938,-26,1011.88,80,0
"2021-07-25 19:32:39+00",25.8,27.8,,78,-392,-1059,-15,1011.88,79.6,0
"2021-07-25 19:37:39+00",23.9,29.9,,78.2,-379,-987,-15,1011.84,79.6,0
"2021-07-25 19:42:39+00",21.7,25.7,,78.3,-403,-904,10,1011.92,79.6,0
"2021-07-25 19:47:39+00",22.7,27.7,,78,-326,-952,-13,1011.89,79.5,0
"2021-07-25 19:52:39+00",22.1,25.1,,78.3,-447,-920,-13,1011.86,79.8,0
"2021-07-25 19:57:39+00",21.5,25.5,,78.3,-306,-911,-1,1011.89,79.7,0
"2021-07-25 20:02:39+00",19.5,25.5,,78.4,-359,-810,13,1012.02,79.8,0
"2021-07-25 20:07:39+00",21.0,25.0,,78.1,-280,-876,-12,1011.91,79.7,0
"2021-07-25 20:12:39+00",19.8,23.8,,78.6,-458,-786,1,1011.84,80.2,0
"2021-07-25 20:17:39+00",19.8,22.8,,78.7,-478,-768,8,1011.76,80.5,0
"2021-07-25 20:22:39+00",18.5,21.5,,78.6,-364,-748,-4,1011.78,80.2,0
"2021-07-25 20:27:39+00",20.1,24.1,,78.8,-351,-825,13,1011.77,80.5,0
"2021-07-25 20:32:39+00",19.6,23.6,,78.4,-421,-800,-2,1011.77,80.1,0
"2021-07-25 20:37:39+00",20.2,27.2,,77.9,-435,-818,11,1011.74,79.4,0
"2021-07-25 20:42:39+00",20.2,26.2,,77.8,-405,-848,29,1011.62,79.2,0
"2021-07-25 20:47:39+00",20.3,23.3,,76.9,-486,-788,20,1011.56,77.9,0
"2021-07-25 20:52:39+00",20.0,23.0,,76.6,-344,-807,-7,1011.57,77.3,0
"2021-07-25 20:57:39+00",20.3,23.3,,76.5,-389,-817,-14,1011.61,77,0
"2021-07-25 21:02:39+00",22.0,25.0,,76.5,-480,-861,0,1011.75,77.2,0
"2021-07-25 21:07:39+00",19.5,22.5,,76.5,-467,-788,-7,1011.62,77.1,0
"2021-07-25 21:12:39+00",16.3,19.3,,76.3,-374,-654,29,1011.65,76.9,0
"2021-07-25 21:17:39+00",20.4,24.4,,76.2,-452,-803,4,1011.65,76.8,0
"2021-07-25 21:22:39+00",15.6,18.6,,76.3,-282,-629,12,1011.52,76.8,0
"2021-07-25 21:27:39+00",16.3,21.3,,76.4,-302,-677,4,1011.41,76.9,0
"2021-07-25 21:32:39+00",19.2,22.2,,76.4,-346,-783,-18,1011.38,76.9,0
"2021-07-25 21:37:39+00",16.9,20.9,,76.4,-340,-687,3,1011.39,77.2,0
"2021-07-25 21:42:39+00",19.3,21.3,,76.5,-496,-739,-1,1011.38,77.7,0
"2021-07-25 21:47:39+00",17.7,21.7,,76.7,-456,-714,23,1011.26,77.9,0
"2021-07-25 21:52:39+00",15.5,20.5,,76.7,-346,-625,27,1011.19,78.2,0
"2021-07-25 21:57:39+00",14.8,17.8,,76.7,-334,-575,32,1011.23,78,0
"2021-07-25 22:02:39+00",16.5,19.5,,76.4,-379,-659,-1,1011.16,77.4,0
"2021-07-25 22:07:39+00",17.1,20.1,,76.5,-423,-676,22,1011.23,77.3,0
"2021-07-25 22:12:39+00",16.5,19.5,,76.9,-423,-671,13,1011.3,77.7,0
"2021-07-25 22:17:39+00",18.3,22.3,,76.5,-458,-715,1,1011.39,77.4,0
"2021-07-25 22:22:39+00",15.5,18.5,,76.5,-376,-608,-1,1011.3,77.1,0
"2021-07-25 22:27:39+00",19.2,23.2,,76.5,-516,-677,6,1011.18,76.9,0
"2021-07-25 22:32:39+00",19.2,22.2,,76.5,-430,-759,-7,1011.16,76.9,0
"2021-07-25 22:37:39+00",19.3,22.3,,76.5,-409,-775,-7,1011.13,76.7,0
"2021-07-25 22:42:39+00",15.6,18.6,,76.6,-388,-598,7,1011.18,76.8,0
"2021-07-25 22:47:39+00",19.1,23.1,,76.7,-497,-710,15,1011.17,77,0
"2021-07-25 22:52:39+00",18.0,22.0,,76.8,-393,-716,6,1011.19,77.2,0
"2021-07-25 22:57:39+00",17.4,19.4,,76.7,-447,-652,18,1011.25,77.1,0
"2021-07-25 23:02:39+00",15.9,20.9,,77,-440,-603,22,1011.27,77.4,0
"2021-07-25 23:07:39+00",16.9,20.9,,76.9,-432,-645,12,1011.17,77.3,0
"2021-07-25 23:12:39+00",16.0,18.0,,76.9,-390,-632,11,1011.13,77.3,0
"2021-07-25 23:17:39+00",15.9,19.9,,76.8,-335,-629,12,1011.13,77.2,0
"2021-07-25 23:22:39+00",15.4,19.4,,76.6,-285,-624,8,1011.04,76.9,0
"2021-07-25 23:27:39+00",15.3,18.3,,76.4,-349,-624,10,1011.14,76.5,0
"2021-07-25 23:32:39+00",16.2,18.2,,76.1,-385,-647,9,1011.2,76.3,0
"2021-07-25 23:37:39+00",17.1,21.1,,76,-381,-673,22,1010.99,76,0
"2021-07-25 23:42:39+00",15.9,19.9,,75.9,-332,-635,3,1010.89,75.9,0
"2021-07-25 23:47:39+00",17.9,21.9,,75.9,-363,-724,-5,1011.03,75.7,0
"2021-07-25 23:52:39+00",18.5,21.5,,75.9,-401,-745,-5,1011.13,75.7,0
"2021-07-25 23:57:39+00",16.8,20.8,,75.9,-345,-662,10,1011.11,75.6,0
